Location: Fützen
(47.8079°N, 8.5300°E)
Time: 22:51:44
(UTC+00:00)

Daily predictions for brighter satellites

Satellite Brightness Start Highest point End
(mag) Time Altitude Azimuth Time Altitude Azimuth Time Altitude Azimuth
Cosmos 1437 Rocket 4.2 17:27:49 10° SE 17:30:12 16° E 17:32:35 10° NE
Spot 1 4.5 17:27:18 10° NNE 17:31:12 36° E 17:34:58 10° SSE
ASTEX 1 3.5 17:26:43 10° NNE 17:31:39 57° E 17:36:33 10° S
HJ-1C 4.4 17:29:52 10° SE 17:32:24 23° ENE 17:34:58 10° NNE
Cosmos 1741 Rocket 4.0 17:27:34 10° S 17:32:48 65° ESE 17:38:01 10° NNE
CZ-4C R/B 4.0 17:30:42 10° N 17:34:56 65° WNW 17:38:58 10° SSW
USA 267 3.3 17:29:37 10° ESE 17:36:12 88° NNE 17:42:47 10° NW
Cosmos 1626 3.6 17:33:06 10° NNW 17:36:33 41° W 17:39:58 10° SSW
Cosmos 1814 Rocket 4.2 17:31:58 10° NNW 17:37:07 51° ENE 17:42:09 10° SE
SL-4 R/B 2.3 17:32:59 10° WNW 17:37:23 89° N 17:42:02 10° ESE
Cosmos 2084 Rocket 4.4 17:36:49 10° NNW 17:40:08 27° NE 17:43:23 11° E
Cosmos 1805 3.2 17:37:40 10° S 17:41:32 79° E 17:45:26 10° NNE
Cosmos 1242 Rocket 2.8 17:39:16 10° SSW 17:42:49 73° WNW 17:46:22 10° N
Cosmos 2227 4.3 17:37:20 10° NNW 17:42:53 56° ENE 17:48:23 10° SE
Okean-O 4.3 17:42:56 10° E 17:45:30 16° ENE 17:48:08 10° NNE
ISS -2.3 17:44:08 10° WNW 17:47:14 35° SW 17:50:20 10° SSE
CZ-4 R/B 2.1 17:44:10 10° SE 17:47:59 35° ENE 17:51:48 10° N
Cosmos 1697 Rocket 3.9 17:42:38 10° SW 17:48:01 45° NW 17:53:27 10° NNE
BREEZE M DEB (TANK) 4.0 17:44:00 10° SSW 17:50:29 25° SSE 17:53:03 13° ESE
Cosmos 1908 Rocket 4.0 17:49:14 10° SSE 17:53:14 38° E 17:57:15 10° NNE
IRIDIUM 103 4.4 17:48:37 10° SSE 17:53:40 53° E 17:58:45 10° NNE
Meteor 2-21 4.4 17:47:50 10° S 17:53:46 64° E 17:59:45 10° NNE
OBJECT-B 2.4 17:54:14 12° ENE 17:54:14 12° ENE 17:55:01 10° NE
SL-14 R/B 3.4 17:49:55 10° N 17:53:54 82° W 17:57:55 10° S
MOS 1-B 4.3 17:48:13 10° SSE 17:54:01 79° ENE 17:59:51 10° NNW
Cosmos 1733 3.6 17:51:21 10° SSW 17:55:03 64° W 17:58:48 10° N
Cosmos 2360 Rocket 3.5 17:52:05 10° SE 17:55:26 16° E 17:58:47 10° ENE
Cosmos 1809 Rocket 4.4 17:52:20 10° S 17:58:24 84° E 18:04:32 10° N
Cosmos 1766 3.2 17:57:31 10° S 18:01:23 63° E 18:05:18 10° NNE
Cosmos 1782 Rocket 4.5 17:57:56 10° SE 18:01:32 26° E 18:05:09 10° NNE
Meteor 2-10 4.2 17:57:20 10° S 18:02:58 87° W 18:08:28 10° N
Cosmos 1674 Rocket 3.7 17:58:43 10° N 18:03:09 83° W 18:07:35 10° S
Cosmos 1025 Rocket 4.1 18:02:06 10° NNE 18:05:44 25° ENE 18:07:56 17° ESE
YAOGAN 1 2.5 18:01:53 10° SSE 18:06:11 76° ENE 18:10:31 10° N
Cosmos 2026 Rocket 4.5 18:02:13 10° SSE 18:07:34 34° E 18:12:57 10° NNE
Cosmos 968 Rocket 3.7 18:03:02 10° S 18:08:04 48° ESE 18:13:05 10° NNE
Okean O Rocket 1.5 18:05:42 10° SSE 18:10:01 69° ENE 18:14:25 10° N
IRIDIUM 106 4.2 18:06:43 10° S 18:11:55 76° E 18:17:09 10° N
Lacrosse 4 Rocket 2.4 18:09:36 10° SSE 18:12:53 24° ESE 18:13:56 21° E
Nadezhda 4 Rocket 4.0 18:08:59 10° S 18:15:17 77° E 18:21:37 10° NNE
Meteor 2-5 Rocket 3.8 18:10:04 10° N 18:15:31 55° ENE 18:20:56 10° SSE
Meteor 1-15 Rocket 4.2 18:11:34 10° S 18:17:03 62° E 18:22:33 10° NNE
CSL-04 Rocket 4.2 18:13:27 15° SE 18:17:22 37° ENE 18:22:19 10° N
Cosmos 2285 Rocket 4.1 18:15:41 10° NNW 18:22:04 86° WSW 18:28:27 10° SSE
USA 186 2.6 18:22:41 30° E 18:23:08 32° ENE 18:26:10 10° N
Cosmos 1726 3.0 18:20:02 10° SSW 18:23:35 51° WNW 18:27:11 10° N
Cosmos 2322 Rocket 2.6 18:18:39 10° S 18:23:55 40° ESE 18:29:13 10° NE
Cosmos 1470 2.8 18:24:29 10° S 18:28:13 51° E 18:31:57 10° NNE
CZ-4B R/B 3.6 18:23:14 10° S 18:28:35 65° WSW 18:34:04 10° NNW
Cosmos 1980 Rocket 3.4 18:24:48 10° SW 18:30:08 42° NW 18:35:29 10° NNE
Cosmos 1975 Rocket 3.3 18:26:39 10° N 18:30:55 46° ENE 18:33:09 25° SE
ARGOS Delta rocket 4.4 18:25:58 10° N 18:31:12 66° WNW 18:36:07 10° SSW
Cosmos 2292 Rocket 3.5 18:33:15 10° S 18:38:25 86° E 18:42:20 10° N
USA 215 3.7 18:37:03 10° NE 18:43:27 58° NNW 18:49:49 10° W
IRS-1C Rocket 4.2 18:43:42 28° SE 18:46:14 53° ENE 18:51:20 10° N
Cosmos 1844 Rocket 2.7 18:44:43 10° NNW 18:50:25 68° ENE 18:52:59 33° SE
SL-16 R/B 2.1 18:48:26 10° SSW 18:54:07 90° NW 18:59:50 10° NNE
Landsat 5 3.5 18:51:15 10° NNE 18:55:46 66° ESE 19:00:08 10° S
Cosmos 1092 Rocket 3.9 18:50:30 10° S 18:56:49 88° E 19:03:06 10° N
Resurs 01 Rocket 2.8 19:01:19 27° NE 19:01:19 27° NE 19:04:12 10° N
Cosmos 836 Rocket 4.4 18:56:27 10° NNW 19:01:48 74° ENE 19:03:34 43° SE
SJ-6B 2.6 19:02:07 66° SSE 19:02:36 89° WSW 19:06:26 10° NNW
Cosmos 2278 Rocket 3.8 19:01:22 10° N 19:05:17 19° NE 19:05:41 18° NE
H-2A R/B 3.7 19:07:12 27° NNE 19:07:12 27° NNE 19:09:20 10° N
Cosmos 1437 Rocket 4.1 19:02:30 10° SW 19:06:02 39° WNW 19:09:34 10° N
Meteor 1-24 Rocket 4.0 19:05:34 10° NNW 19:10:48 61° W 19:16:06 10° S
Resurs 1-3 3.4 19:11:26 72° ESE 19:11:43 76° ENE 19:16:07 10° N
MetOp-A 4.5 19:17:19 33° NNE 19:17:19 33° NNE 19:19:47 10° N
SL-4 R/B 3.8 19:12:45 10° W 19:16:35 27° SW 19:17:51 24° SSW
Cosmos 2084 Rocket 4.0 19:15:58 10° NW 19:19:39 45° SW 19:19:51 45° SW
Okean-O 2.8 19:20:29 52° SSW 19:21:26 70° WSW 19:25:52 10° NNW
CZ-4 R/B 3.7 19:19:33 10° SSW 19:22:59 24° W 19:26:25 10° NW
Cosmos 1486 Rocket 3.9 19:18:08 10° SSW 19:23:27 83° ESE 19:28:50 10° NNE
OBJECT-B 3.4 19:24:55 15° NW 19:24:55 15° NW 19:25:40 10° NW
Cosmos 1844 3.6 19:19:20 10° NNW 19:24:55 81° WSW 19:26:12 55° SSE
IGS 5A 4.0 19:24:37 47° SW 19:25:22 56° W 19:29:28 10° NNW
DNEPR-1 R/B 3.9 19:23:05 10° SW 19:27:49 85° NW 19:30:36 30° NE
S3M 3.9 19:23:51 10° N 19:30:01 58° ENE 19:30:10 58° E
Cosmos 1300 Rocket 3.8 19:30:15 61° WSW 19:30:43 67° W 19:35:05 10° N
Cosmos 773 Rocket 4.1 19:26:07 10° NNW 19:31:00 60° NE 19:31:00 60° NE
Meteor 1-21 Rocket 4.4 19:26:40 10° N 19:31:34 54° NE 19:31:34 54° NE
Cosmos 2360 Rocket 2.1 19:32:59 10° SSW 19:38:39 85° WNW 19:44:20 10° NNE
Cosmos 1417 Rocket 4.4 19:44:18 10° N 19:50:28 85° W 19:51:04 74° S
Lacrosse 4 Rocket 2.8 19:47:21 10° WSW 19:50:17 35° W 19:50:17 35° W
ATLAS 2AS CENTAUR R/B 3.9 19:54:15 10° NW 20:00:32 30° NNE 20:01:35 29° NE
MOS 1 4.4 20:01:33 74° NW 20:01:33 74° NW 20:06:50 10° NNW
SPOT 1/Viking Rocket 4.2 20:07:53 53° NW 20:07:53 53° NW 20:11:56 10° NNW
Cosmos 2322 Rocket 3.5 20:02:41 10° WSW 20:08:00 39° NW 20:13:21 10° NNE
NOSS 3-4 (A) 3.8 20:05:21 10° NW 20:12:04 74° NE 20:12:04 74° NE
NOSS 3-4 (C) 3.8 20:05:27 10° NW 20:12:10 74° NE 20:12:10 74° NE
Ariane Rocket 4.2 20:16:26 37° NNW 20:16:26 37° NNW 20:19:27 10° NNW
Aureole 1 Rocket 4.4 20:18:32 10° SW 20:25:45 59° WNW 20:31:26 10° NNE
USA 215 4.2 20:24:15 35° NNE 20:25:50 40° N 20:31:48 10° WNW
USA 281 3.9 20:27:40 44° NNE 20:27:40 44° NNE 20:32:34 10° NNW
Resurs 01 Rocket 4.0 20:38:53 21° NW 20:38:53 21° NW 20:40:45 10° NNW
Terra 4.3 20:42:43 15° N 20:42:43 15° N 20:43:36 10° N
Cosmos 1943 Rocket 4.2 20:36:52 10° N 20:38:59 19° N 20:38:59 19° N
Cosmos 2278 Rocket 3.7 20:44:37 10° NNW 20:47:32 31° NNW 20:47:32 31° NNW
Cosmos 2360 Rocket 4.5 21:19:29 10° W 21:23:31 20° NW 21:27:34 10° N
ATLAS 2AS CENTAUR R/B 4.2 21:45:26 10° NW 21:49:00 32° NW 21:49:00 32° NW
